Location: Frizzleburg
(41.0764°N, 80.4548°W)
Time: 08:45:09
(UTC+00:00)

ATLAS CENTAUR R/B - Pass Details

Date: 17 November 2019
Orbit: 457 x 691 km, 64.7° (Epoch: 30 November)

Event Time Altitude Azimuth Distance (km) Brightness Sun altitude
Rises 09:33:47 0° 176° (S) 3,040 5.2 -29.6°
Reaches altitude 10° 09:36:32 10° 161° (SSE) 2,135 4.5 -29.1°
Maximum altitude 09:40:16 22° 111° (ESE) 1,482 4.1 -28.4°
Drops below altitude 10° 09:43:59 10° 61° (ENE) 2,122 5.0 -27.7°
Sets 09:46:42 0° 47° (NE) 3,018 5.7 -27.2°
